Temperature
21 21 21 21 21 21 21 20 20 20 20 20 20 20 20 20 19 19 19 19 19 19 19 19 19 18 18 18 18 18 18 18 18 18 18 18 17 17 17 17 17 17 17
21 21 21 21 21 21 20 20 20 20 20 20 20 19 19 19 19 19 19 19 19 19 19 19 19 19 19 18 18 18 18 18 18 18 18 17 17 17 17 17 18 17 17
22 21 21 21 21 20 20 20 20 20 20 19 19 19 19 19 19 19 19 19 19 19 19 19 19 19 19 18 18 18 18 18 18 18 18 17 17 17 17 17 17 17 17
22 21 21 21 21 20 20 20 20 20 19 19 19 19 19 19 19 19 19 19 19 19 19 19 19 19 19 18 18 18 18 18 18 18 17 17 17 17 17 17 17 17 17
22 21 21 21 20 20 20 20 20 20 20 19 19 19 19 19 19 19 19 19 19 19 19 19 19 19 19 18 18 18 18 17 18 18 18 18 18 18 18 17 17 17 17
21 21 21 21 20 20 20 20 20 20 20 19 19 19 19 19 19 19 19 19 19 19 19 19 19 19 19 19 18 18 18 18 18 18 17 18 18 18 18 18 18 17 17
21 21 21 20 20 20 20 20 20 20 20 20 20 20 20 19 19 19 19 19 19 19 19 19 19 19 19 19 18 18 18 17 18 18 17 18 18 18 18 18 18 17 17
21 21 21 21 20 20 20 20 20 20 20 20 20 20 20 19 19 19 19 19 19 19 19 19 19 19 19 19 18 18 18 17 18 18 18 18 18 18 18 18 18 18 18
21 21 21 21 20 20 20 20 20 20 20 20 20 20 19 19 19 19 19 19 19 19 19 19 19 19 19 19 19 18 18 18 18 18 18 18 18 18 18 18 18 18 18
21 21 21 21 21 20 20 20 20 20 20 20 19 19 19 19 19 19 19 19 19 19 19 19 19 19 19 19 19 18 18 18 18 18 18 18 18 18 18 18 18 18 18
21 21 21 21 20 20 20 20 20 20 20 19 19 19 19 19 19 19 18 18 18 18 18 18 19 19 19 19 19 19 18 18 18 18 18 18 18 18 18 18 18 18 18
21 21 21 20 20 20 20 20 20 20 19 19 19 19 19 19 19 18 18 18 18 18 18 18 18 18 18 19 19 19 18 18 18 18 18 17 17 18 18 18 18 18 18
21 21 20 20 20 20 20 19 19 19 19 19 19 19 18 18 18 18 18 18 18 18 18 18 18 18 18 18 18 18 18 18 18 18 18 17 17 17 18 18 18 18 18
20 20 20 20 20 20 19 19 19 19 19 19 18 18 18 18 18 18 18 18 18 18 17 17 17 18 18 18 18 18 18 18 18 18 18 18 17 17 18 18 18 18 18
20 20 20 20 20 19 19 19 19 19 19 18 18 18 18 18 18 18 17 17 17 17 17 17 17 17 17 17 17 17 17 17 17 17 17 17 17 17 17 17 18 18 18
19 19 19 20 19 19 19 19 19 18 18 18 18 18 18 18 18 18 17 17 17 17 17 17 17 17 17 17 17 17 17 17 17 17 17 17 17 17 17 17 17 17 18
20 20 19 19 19 19 19 19 19 18 18 18 18 18 18 18 17 17 17 17 17 17 17 17 17 17 17 17 17 17 17 17 17 17 17 17 17 17 17 17 17 17 17
20 20 19 19 19 19 19 19 19 18 18 18 18 18 18 17 17 17 17 17 17 17 16 16 16 16 16 16 16 16 16 16 16 16 17 17 17 17 17 17 17 17 17
19 19 19 19 19 19 19 19 18 18 18 18 18 18 17 17 17 17 17 16 16 16 16 16 16 16 16 16 16 16 16 16 16 16 16 16 16 16 17 17 17 17 17
19 19 19 19 19 19 19 18 18 18 18 18 18 17 17 17 17 17 16 16 16 16 16 16 16 16 16 15 16 16 16 16 16 16 16 16 16 16 16 16 16 17 17
19 19 19 19 19 19 18 18 18 18 18 17 17 17 17 17 16 16 16 16 16 15 15 15 15 15 15 15 15 15 16 16 16 16 16 16 16 16 16 16 16 16 16
19 19 19 19 19 18 18 18 18 17 17 17 17 17 17 16 16 16 16 15 15 15 15 15 15 15 15 14 14 15 15 15 16 16 16 16 16 16 16 16 16 16 16
19 19 19 19 18 18 18 18 17 17 17 17 16 16 16 16 16 15 15 15 15 15 15 15 14 14 14 14 14 14 14 14 15 15 15 16 16 16 16 16 16 16 16
19 19 19 18 18 18 18 17 17 17 17 16 16 16 16 15 15 15 15 15 15 14 14 14 14 14 14 14 14 14 13 13 14 14 15 15 15 15 15 16 16 16 16
19 19 19 18 18 18 18 17 17 17 16 16 16 15 15 15 15 15 14 14 14 14 14 14 14 13 13 13 13 13 13 13 13 13 14 14 15 15 15 15 15 15 15
19 19 19 18 18 18 18 17 17 17 16 16 15 15 15 15 15 14 14 14 14 14 13 13 13 13 13 13 13 13 13 13 13 13 13 13 14 14 14 15 15 15 15
Wind_Speed
11 15 22 23 22 22 22 22 22 22 21 21 21 21 21 21 20 19 18 17 16 15 14 14 14 13 13 14 14 14 15 15 16 17 17 17 16 17 18 19 18 17 19
15 19 23 23 23 22 22 21 21 21 21 20 20 20 19 19 18 18 17 16 15 14 14 14 13 13 13 13 13 14 14 14 15 17 17 16 16 17 17 18 17 16 18
18 19 22 23 23 22 22 22 21 21 20 20 19 19 18 18 17 16 16 15 14 14 13 13 13 13 12 12 12 12 12 13 14 15 15 13 14 16 17 18 18 18 17
18 18 20 23 23 23 22 22 21 21 20 19 19 18 18 17 16 15 15 15 14 13 13 12 12 11 11 11 11 11 10 11 11 12 11 11 13 16 18 18 17 17 17
15 17 21 23 23 22 22 21 21 20 20 19 18 18 17 16 15 14 14 14 13 13 12 11 11 10 10 9 9 9 8 8 8 9 11 12 13 16 17 17 17 17 17
13 16 21 23 22 22 22 21 21 20 20 19 18 17 16 15 14 14 13 12 12 12 11 11 10 9 8 8 8 7 6 5 6 10 12 13 14 16 17 16 16 16 16
14 15 20 22 22 21 21 21 20 19 19 18 17 17 15 15 14 13 12 12 11 11 10 10 9 8 7 6 6 5 4 3 5 10 12 13 15 17 16 16 16 16 16
15 14 19 21 21 21 21 20 20 19 18 18 17 16 15 14 13 13 12 11 11 10 10 9 8 7 6 5 4 3 2 2 5 8 12 14 17 18 16 16 16 16 15
13 13 14 17 18 20 20 19 19 18 18 17 16 15 14 13 13 12 11 11 11 10 10 9 8 7 5 4 3 2 1 1 3 6 11 13 17 18 17 16 16 16 16
10 9 10 13 14 15 17 18 18 17 16 15 14 13 12 12 12 11 10 10 11 10 9 8 8 7 6 5 4 4 3 1 1 4 9 13 18 18 18 17 17 16 16
11 8 7 8 10 12 14 16 16 16 15 14 13 12 10 9 10 10 10 10 10 9 8 8 8 7 7 6 6 6 5 3 2 4 9 14 19 19 18 18 17 17 17
13 11 9 8 9 10 11 12 11 12 12 11 10 10 9 8 8 9 10 11 10 10 9 9 8 8 7 6 7 7 6 5 4 5 9 15 19 19 19 19 18 18 17
14 13 11 9 9 8 7 9 8 8 8 8 9 9 7 6 5 5 6 7 8 8 6 6 7 7 6 6 6 7 7 5 4 5 8 15 18 18 18 19 19 19 19
11 10 10 9 7 7 8 7 7 6 6 6 8 9 7 4 3 3 3 4 5 5 4 4 4 6 5 5 6 6 6 5 4 5 8 14 20 19 18 18 19 20 20
10 9 9 9 8 6 6 5 6 5 6 6 8 8 8 4 3 3 3 3 4 4 4 3 3 3 3 3 4 4 5 5 5 5 7 14 19 21 21 21 21 21 21
10 9 8 9 8 7 5 4 4 6 7 7 7 8 8 6 4 3 2 2 2 3 4 4 4 3 2 1 2 3 4 4 5 7 9 14 18 21 23 23 23 23 23
10 8 8 9 8 8 7 5 6 7 8 6 6 8 8 7 6 4 2 1 1 1 2 2 2 1 1 1 2 3 4 5 5 7 9 12 15 20 23 23 23 23 23
10 8 7 9 9 8 6 5 4 6 7 7 7 7 8 7 7 4 2 1 1 1 2 1 1 1 1 1 3 4 3 3 5 6 9 11 14 16 19 23 24 24 24
8 8 6 7 7 6 6 4 4 5 5 7 7 7 7 7 7 5 2 1 1 2 1 1 1 1 1 2 3 3 3 3 4 5 6 10 13 15 15 19 23 24 24
7 7 7 7 6 6 5 4 3 3 3 4 5 6 7 6 6 5 2 1 2 2 1 1 0 0 1 1 3 3 4 4 3 4 5 6 9 13 15 15 17 21 25
7 6 6 6 5 5 3 3 3 2 2 2 2 5 6 5 5 4 2 2 2 2 0 0 1 0 1 1 2 4 4 4 3 3 3 3 4 9 11 13 14 15 16
7 6 6 6 6 5 3 3 3 3 2 2 1 2 4 4 5 4 3 2 2 2 2 1 1 1 1 1 1 1 4 5 4 3 2 1 2 3 5 10 12 13 14
8 9 9 7 7 5 4 3 3 4 3 3 2 1 0 2 3 4 4 3 2 3 2 1 2 2 0 1 1 2 1 3 4 4 3 2 3 2 3 5 8 11 13
9 8 8 8 7 6 6 5 5 4 3 1 1 0 1 2 1 3 3 3 3 2 2 1 2 2 2 0 1 0 2 3 2 4 4 3 4 4 4 3 3 6 9
10 9 8 8 7 6 6 7 7 5 3 1 2 3 2 3 2 2 3 3 3 2 2 2 1 1 1 2 1 1 0 0 2 2 4 5 5 4 4 4 2 4 6
9 9 8 8 7 6 7 7 7 7 5 4 3 2 2 2 2 3 3 3 2 2 1 1 0 0 0 1 1 1 2 1 1 1 3 4 4 5 4 3 3 3 5
Wind_Direction
152 154 146 138 133 129 124 121 118 115 113 111 110 110 110 110 110 111 111 109 108 107 106 105 104 101 100 101 103 107 109 112 115 116 116 118 119 120 118 117 114 113 114
148 151 146 141 137 133 129 126 123 121 120 118 117 116 116 115 115 115 115 113 110 109 108 106 104 102 103 104 105 109 111 114 115 115 114 115 120 121 120 118 117 119 118
141 146 144 141 139 136 133 131 129 127 126 125 124 123 123 122 121 120 119 117 114 112 110 108 107 105 106 106 107 109 111 114 116 115 112 109 117 123 122 122 121 121 120
137 141 143 142 140 139 137 135 134 133 133 132 131 129 128 127 126 125 123 122 119 116 114 111 110 108 108 108 108 108 110 112 118 121 120 116 117 123 124 125 125 124 123
133 137 142 141 141 140 140 139 138 137 137 137 136 135 134 133 132 130 128 126 124 122 120 118 116 113 112 110 107 105 107 113 122 127 134 124 124 129 128 128 128 128 127
129 133 139 140 141 141 142 141 141 141 141 141 141 140 140 140 138 137 135 133 131 129 127 126 125 122 118 113 109 108 108 112 116 126 136 134 134 137 136 134 133 133 131
128 130 136 138 141 143 144 144 144 144 145 145 145 145 145 145 145 143 143 143 141 139 138 137 135 133 129 123 116 113 109 101 114 138 146 146 146 144 143 142 140 139 137
132 132 137 140 142 145 146 146 146 146 147 148 149 150 151 150 149 149 148 148 149 147 148 148 148 149 146 141 134 125 111 75 110 146 155 157 156 151 148 147 147 146 145
133 135 137 142 145 147 147 147 148 148 150 151 152 153 154 153 153 153 153 154 156 157 158 160 162 164 168 173 180 187 240 351 102 151 164 165 163 158 156 155 155 154 154
133 138 139 143 146 146 148 150 151 151 152 154 156 157 158 160 161 163 164 167 167 168 171 173 176 179 189 204 221 238 255 290 137 167 174 177 171 167 165 163 163 162 162
144 152 148 147 149 148 150 155 154 154 156 158 160 161 162 166 171 177 177 180 179 179 181 186 192 197 202 218 236 249 258 252 221 188 186 189 180 175 173 172 172 171 171
161 167 164 159 157 158 160 155 156 156 158 160 165 163 162 170 183 185 189 187 189 191 192 198 205 210 213 222 241 253 251 246 234 213 204 196 189 184 181 180 180 179 179
168 167 165 165 165 166 153 152 156 153 157 165 172 167 163 169 180 179 183 195 198 199 197 206 216 219 218 221 233 243 244 242 241 234 220 203 194 191 190 189 187 187 187
157 161 157 158 156 156 148 153 154 158 164 170 179 174 162 152 142 146 168 178 182 189 191 199 214 222 224 227 230 239 240 230 234 236 217 202 199 196 197 198 197 195 194
147 149 150 139 137 136 135 145 144 149 155 164 164 163 156 144 141 153 164 169 182 192 185 189 208 219 217 221 234 241 242 232 224 236 224 209 206 205 202 203 205 203 200
140 143 140 131 130 126 126 129 138 142 146 148 147 147 142 137 138 142 144 159 177 183 184 184 195 203 206 219 258 261 259 242 226 222 223 216 214 213 213 210 209 208 206
140 135 134 129 125 125 131 130 132 140 140 135 135 139 136 137 138 135 138 145 193 183 168 165 187 159 197 234 261 261 252 252 232 217 216 217 221 223 223 219 215 213 211
135 134 139 136 128 127 128 122 125 131 133 134 137 139 140 142 139 131 135 174 236 132 127 132 136 129 227 254 264 266 254 246 244 231 219 219 222 225 228 225 222 220 217
138 138 132 129 132 128 121 113 114 121 134 145 146 144 143 140 137 134 143 167 112 110 122 148 134 158 235 283 275 268 266 255 248 245 224 223 222 223 224 227 228 227 225
131 128 128 124 125 117 107 97 89 101 127 142 150 158 152 145 141 137 142 129 95 90 76 87 141 204 215 268 297 308 290 271 261 251 237 233 227 225 226 229 230 232 230
132 130 129 130 133 128 117 119 121 131 149 153 164 163 156 151 144 138 121 102 100 104 121 161 139 27 318 354 19 332 318 305 290 269 252 233 235 235 231 230 229 228 232
150 150 147 150 147 141 138 147 146 137 139 143 123 129 147 147 147 146 140 136 124 109 71 58 97 98 335 60 113 37 341 335 329 312 302 243 257 251 242 238 233 229 230
169 171 165 160 151 145 135 112 86 71 59 49 45 38 26 146 153 149 154 150 144 130 123 99 115 128 174 333 121 138 137 271 308 317 332 337 331 299 272 259 239 234 231
178 170 159 154 147 142 130 117 115 115 115 138 156 71 12 50 99 147 151 144 136 126 124 118 114 127 137 281 322 181 188 188 223 307 319 327 334 319 298 288 266 245 233
172 165 160 150 146 142 130 126 118 115 128 122 82 67 39 12 24 90 124 116 113 114 116 93 73 83 151 181 216 257 288 259 179 200 294 316 326 312 307 291 283 269 253
169 163 158 150 149 143 132 129 131 132 128 106 86 77 43 22 22 46 102 104 107 108 111 100 60 7 232 213 209 201 191 212 239 213 255 292 301 298 301 294 289 281 278
Height
1528 1531 1534 1536 1538 1540 1541 1542 1543 1545 1546 1547 1549 1550 1551 1552 1553 1554 1555 1556 1557 1558 1558 1559 1559 1559 1560 1560 1561 1561 1561 1562 1562 1563 1563 1564 1565 1566 1567 1567 1568 1569 1570
1525 1530 1534 1536 1538 1540 1542 1543 1545 1546 1547 1548 1549 1551 1552 1553 1554 1555 1556 1557 1558 1559 1559 1560 1560 1561 1561 1561 1562 1562 1563 1564 1564 1565 1565 1566 1567 1568 1569 1569 1570 1571 1572
1525 1530 1534 1537 1539 1541 1543 1544 1546 1547 1548 1549 1550 1551 1553 1554 1555 1556 1557 1558 1559 1559 1560 1561 1561 1562 1562 1563 1563 1564 1565 1566 1566 1567 1568 1568 1569 1570 1571 1571 1572 1573 1574
1526 1530 1534 1538 1540 1542 1543 1545 1546 1547 1549 1550 1551 1552 1553 1554 1556 1557 1557 1558 1559 1560 1561 1562 1562 1563 1564 1564 1565 1566 1567 1567 1568 1569 1570 1570 1571 1572 1572 1573 1574 1575 1576
1528 1532 1535 1538 1541 1542 1544 1545 1547 1548 1549 1550 1552 1553 1554 1555 1556 1557 1558 1559 1560 1561 1562 1563 1563 1564 1565 1566 1566 1567 1568 1569 1569 1570 1571 1572 1572 1573 1574 1574 1575 1576 1577
1529 1533 1536 1539 1542 1543 1545 1546 1547 1548 1550 1551 1552 1553 1555 1556 1557 1558 1559 1560 1561 1562 1563 1563 1564 1565 1566 1567 1568 1569 1569 1570 1571 1571 1572 1573 1574 1574 1575 1576 1577 1578 1579
1530 1534 1537 1540 1542 1544 1546 1547 1548 1549 1551 1552 1553 1554 1555 1556 1557 1558 1559 1560 1561 1562 1563 1564 1565 1566 1567 1568 1569 1570 1571 1571 1572 1573 1573 1574 1575 1576 1576 1577 1578 1579 1580
1531 1534 1538 1541 1543 1544 1546 1547 1548 1550 1551 1552 1553 1554 1555 1556 1557 1558 1560 1561 1562 1563 1564 1565 1566 1567 1568 1569 1570 1571 1571 1572 1572 1573 1574 1575 1576 1577 1577 1578 1579 1580 1581
1534 1536 1538 1541 1543 1545 1546 1548 1549 1550 1551 1552 1553 1554 1555 1556 1557 1559 1560 1561 1562 1563 1564 1565 1566 1567 1568 1569 1570 1571 1572 1572 1573 1574 1575 1576 1577 1577 1578 1579 1580 1581 1582
1535 1538 1539 1541 1544 1545 1547 1548 1549 1550 1552 1553 1554 1555 1556 1557 1558 1559 1560 1561 1562 1563 1564 1565 1566 1566 1568 1569 1570 1571 1572 1573 1573 1574 1575 1576 1577 1578 1579 1580 1580 1581 1582
1537 1539 1541 1542 1545 1546 1547 1548 1549 1551 1552 1553 1554 1555 1556 1557 1558 1559 1560 1561 1561 1562 1563 1564 1565 1566 1567 1568 1569 1570 1571 1572 1573 1574 1575 1576 1577 1578 1579 1580 1581 1581 1582
1537 1539 1541 1543 1545 1546 1548 1549 1549 1551 1552 1553 1554 1555 1556 1557 1557 1558 1559 1560 1561 1561 1562 1563 1564 1565 1566 1567 1568 1569 1570 1572 1572 1573 1574 1575 1576 1578 1579 1579 1580 1581 1582
1536 1538 1540 1543 1545 1546 1548 1549 1550 1551 1552 1553 1554 1555 1555 1556 1557 1558 1558 1559 1560 1560 1561 1562 1563 1564 1564 1565 1567 1568 1569 1570 1571 1572 1573 1574 1575 1576 1577 1578 1580 1581 1582
1536 1538 1540 1542 1544 1546 1547 1549 1550 1551 1552 1553 1554 1555 1555 1556 1556 1557 1557 1558 1558 1559 1559 1560 1561 1562 1563 1564 1565 1566 1567 1568 1569 1570 1571 1572 1573 1574 1575 1577 1578 1579 1580
1534 1538 1540 1542 1543 1546 1547 1548 1549 1550 1551 1552 1553 1553 1554 1555 1555 1556 1556 1556 1557 1557 1558 1559 1559 1560 1561 1562 1563 1564 1565 1566 1566 1567 1568 1569 1570 1572 1573 1574 1576 1577 1578
1533 1536 1539 1541 1543 1545 1547 1548 1549 1550 1551 1552 1552 1553 1554 1554 1554 1555 1555 1555 1555 1555 1556 1557 1557 1558 1559 1560 1561 1561 1562 1563 1564 1564 1565 1566 1568 1569 1570 1572 1573 1574 1576
1533 1535 1538 1541 1543 1545 1546 1547 1549 1550 1551 1551 1552 1552 1553 1553 1553 1554 1554 1553 1553 1554 1554 1555 1555 1556 1557 1557 1558 1558 1559 1559 1560 1561 1562 1563 1564 1566 1567 1568 1570 1571 1572
1534 1536 1539 1540 1542 1544 1546 1547 1548 1549 1550 1551 1551 1551 1552 1552 1552 1552 1552 1552 1552 1552 1552 1553 1553 1553 1554 1555 1555 1555 1555 1556 1557 1557 1558 1559 1560 1561 1563 1564 1566 1567 1568
1534 1536 1538 1540 1542 1543 1545 1547 1548 1549 1550 1550 1550 1551 1551 1551 1551 1551 1551 1550 1550 1550 1550 1551 1551 1551 1551 1552 1552 1552 1552 1552 1553 1554 1554 1554 1556 1557 1559 1560 1561 1562 1564
1534 1536 1538 1540 1542 1543 1545 1547 1548 1548 1549 1550 1550 1550 1550 1550 1550 1550 1549 1549 1549 1549 1549 1549 1549 1549 1549 1549 1549 1549 1549 1549 1549 1550 1550 1551 1551 1553 1554 1556 1557 1558 1559
1535 1537 1538 1540 1542 1543 1545 1546 1547 1548 1548 1548 1549 1549 1549 1549 1548 1548 1548 1547 1547 1547 1547 1547 1547 1547 1547 1547 1546 1546 1546 1546 1547 1547 1547 1547 1548 1548 1550 1551 1552 1553 1555
1534 1536 1539 1540 1542 1543 1545 1546 1546 1547 1547 1547 1547 1547 1547 1547 1547 1547 1546 1546 1546 1545 1545 1545 1545 1544 1544 1545 1544 1544 1543 1544 1544 1544 1544 1544 1544 1545 1546 1546 1547 1548 1549
1534 1536 1538 1540 1541 1543 1544 1545 1545 1545 1546 1546 1546 1546 1546 1545 1545 1545 1545 1544 1544 1543 1543 1543 1542 1542 1542 1542 1542 1543 1542 1541 1541 1541 1541 1541 1541 1542 1542 1542 1543 1544 1545
1534 1536 1538 1539 1541 1542 1543 1543 1543 1544 1544 1544 1544 1544 1544 1544 1543 1543 1543 1542 1542 1541 1541 1540 1540 1540 1540 1540 1540 1540 1541 1540 1540 1538 1538 1538 1538 1539 1538 1539 1539 1540 1540
1533 1535 1537 1538 1539 1540 1541 1541 1541 1542 1542 1542 1542 1542 1542 1542 1541 1541 1540 1540 1539 1539 1538 1538 1538 1537 1537 1537 1537 1537 1537 1538 1537 1537 1535 1534 1535 1535 1535 1535 1535 1536 1536
1532 1534 1535 1537 1538 1538 1539 1539 1540 1540 1540 1540 1540 1540 1540 1539 1539 1538 1538 1537 1537 1537 1536 1536 1535 1535 1534 1534 1534 1534 1534 1534 1534 1534 1533 1531 1531 1531 1532 1532 1532 1532 1532